Weather Roundup
Issued by NWS Springfield, MO

Home | Current Version | Previous Version | Text Only | Print | Product List | Glossary On
Versions: 1 2 3 4 5 6 7 8 9 10 11 12 13 14 15 16 17 18 19 20 21 22 23 24 25 26 27 28 29 30 31 32 33 34 35 36 37 38 39 40 41 42 43 44 45 46 47 48 49 50
000
NZUS99 KSGF 240007
HRRSGF

HOURLY WEATHER
NATIONAL WEATHER SERVICE SPRINGFIELD MO
600 PM CST MON JAN 23 2017

......SGF CWA......

CITY           SKY/WX    TMP DP  RH WIND       PRES   REMARKS
SPRINGFIELD    CLEAR     44  30  57 NE3       29.83S
6HR MIN TEMP:  41; 6HR MAX TEMP:  50;

JOPLIN         CLEAR     47  32  56 VRB5      29.82S
6HR MIN TEMP:  45; 6HR MAX TEMP:  52;

WEST PLAINS    CLEAR     44  32  62 N3        29.84R
6HR MIN TEMP:  44; 6HR MAX TEMP:  52;

ROLLA          PTCLDY    38  32  79 NW5       29.82F WCI  34
6HR MIN TEMP:  38; 6HR MAX TEMP:  45;

OSAGE BEACH    CLEAR     38  35  89 CALM      29.86F
BRANSON        CLEAR     41  36  81 CALM      29.84S

......SURROUNDING SGF CWA......

CITY           SKY/WX    TMP DP  RH WIND       PRES   REMARKS
CHANUTE        CLEAR     45  33  63 SE7       29.78F
PARSONS        CLEAR     47  37  68 SE3       29.80S
COFFEYVILLE    CLEAR     46  35  65 SE7       29.80F
EMPORIA        CLEAR     46  33  60 SE12      29.75S
GROVE OK       CLEAR     48  36  61 CALM      29.83S
ROGERS AR      CLEAR     48  33  56 SE3       29.83S
SILOAM SPRINGS CLEAR     48  28  46 SE5       29.81F
HARRISON AR    CLEAR     46  33  60 CALM      29.84R
NEAR YELLVILLE CLEAR     45  32  61 CALM      29.83R

......KANSAS AND MISSOURI......

CITY           SKY/WX    TMP DP  RH WIND       PRES   REMARKS
KANSAS CTY INT PTCLDY    37  30  75 E7        29.82S WCI  32
DOWNTOWN KC    CLEAR     38  31  76 E7        29.83S WCI  33
COLUMBIA       CLOUDY    36  31  82 NW3       29.86S
SEDALIA        CLEAR     36  31  82 E3        29.87S
ST JOSEPH      CLEAR     36  31  82 E8        29.84R WCI  30
ST LOUIS       CLOUDY    42  34  73 N3        29.85S
SPIRIT OF STL  CLOUDY    42  34  73 NW6       29.85S
KIRKSVILLE     CLOUDY    33  30  88 CALM      29.86S
WICHITA        PTCLDY    49  33  54 SE10      29.71F
TOPEKA         CLEAR     37  32  82 E9        29.80F WCI  30
OLATHE         CLEAR     38  33  82 E6        29.82S WCI  33

......TENNESSEE......

CITY           SKY/WX    TMP DP  RH WIND       PRES   REMARKS
MEMPHIS        MOCLDY    48  39  71 CALM      29.85R
NASHVILLE      CLOUDY    46  36  68 N12       29.77R

......ARKANSAS.......

CITY           SKY/WX    TMP DP  RH WIND       PRES   REMARKS
FAYETTEVILLE   CLEAR     42  36  79 CALM      29.82F
FT SMITH       CLEAR     53  32  44 CALM      29.82F
LITTLE ROCK    CLEAR     52  36  54 W3        29.85S

......OKLAHOMA.......

CITY           SKY/WX    TMP DP  RH WIND       PRES   REMARKS
TULSA          CLEAR     49  36  61 E7        29.79S
PONCA CITY     CLEAR     51  31  46 SE8       29.73F
MCALESTER      PTCLDY    58  26  29 S6        29.80S
OKLAHOMA CITY  CLEAR     54  32  43 S9        29.73F

......IOWA............

CITY           SKY/WX    TMP DP  RH WIND       PRES   REMARKS
DES MOINES     CLOUDY    34  28  79 N5        29.85F WCI  30
QUAD CITIES    CLOUDY    39  33  79 NW8       29.82S WCI  33

......ILLINOIS........

CITY           SKY/WX    TMP DP  RH WIND       PRES   REMARKS
QUINCY         CLOUDY    36  31  82 W9        29.85R WCI  29
CHICAGO        CLOUDY    41  35  79 NW9       29.77R



USA.gov is the U.S. government's official web portal to all federal, state and local government web resources and services.